285  
ASUS41 KRLX 231010  
RWRRLX  
REGIONAL WEATHER ROUNDUP  
NATIONAL WEATHER SERVICE CHARLESTON WV  
600 AM EDT SAT OCT 23 2021  
 
NOTE: "FAIR" INDICATES FEW OR NO CLOUDS BELOW 12,000 FEET WITH NO  
SIGNIFICANT WEATHER AND/OR S TO VISIBILITY
.  
 
WVZ003-231100-  
NORTHERN PANHANDLE OF WEST VIRGINIA  
 
CITY SKY/WX TMP DP RH WIND PRES REMARKS
 
WHEELING LGT RAIN 46 45 96 N10 29.98R FOG  

 
 
WVZ009-231100-  
NORTHWEST WEST VIRGINIA  
 
CITY SKY/WX TMP DP RH WIND PRES REMARKS
 
PARKERSBURG CLOUDY 51 49 92 SW6 30.00R  

 
 
WVZ006-231100-  
WESTERN WEST VIRGINIA  
 
CITY SKY/WX TMP DP RH WIND PRES REMARKS
 
HUNTINGTON CLOUDY 51 47 86 SW6 30.03R  

 
 
WVZ015-231100-  
WEST CENTRAL WEST VIRGINIA  
 
CITY SKY/WX TMP DP RH WIND PRES REMARKS
 
CHARLESTON CLOUDY 51 47 86 SW8 30.03R  

 
 
WVZ509-031-039-231100-  
NORTH CENTRAL WEST VIRGINIA  
 
CITY SKY/WX TMP DP RH WIND PRES REMARKS
 
MORGANTOWN CLOUDY 50 48 93 S5 29.98S  
CLARKSBURG CLOUDY 51 48 89 SW7 29.98S  
BUCKHANNON CLOUDY 48 48 100 SW7 30.00R FOG  

 
 
WVZ515-516-025-034-042-507-231100-  
SOUTHERN WEST VIRGINIA  
 
CITY SKY/WX TMP DP RH WIND PRES REMARKS
 
BECKLEY CLOUDY 47 44 90 W13 30.03R  
LOGAN CLOUDY 48 48 100 CALM 30.04R  
PINEVILLE CLOUDY 51 46 84 MISG 30.10R  
BLUEFIELD CLOUDY 44 43 96 W9 30.05R FOG  
LEWISBURG CLOUDY 50 46 85 W3 30.02R  

 
 
WVZ525-526-231100-  
NORTHERN MOUNTAINS OF WEST VIRGINIA  
 
CITY SKY/WX TMP DP RH WIND PRES REMARKS
 
ELKINS CLOUDY 50 44 80 W5 30.00R  

 
 
WVZ502-504-052-231100-  
EASTERN PANHANDLE OF WEST VIRGINIA  
 
CITY SKY/WX TMP DP RH WIND PRES REMARKS
 
PETERSBURG CLOUDY 53 53 100 CALM 29.98R  
CUMBERLAND CLOUDY 53 47 82 CALM 30.00F  
MARTINSBURG PTCLDY 52 46 80 N3 29.96R  

 
 
OHZ075-083-KYZ101-231100-  
SOUTHEAST OHIO/NORTHEAST KENTUCKY  
 
CITY SKY/WX TMP DP RH WIND PRES REMARKS
 
ATHENS CLOUDY 51 51 100 SW5 29.99S  
JACKSON CLOUDY 52 50 93 SW6 30.02S  
ASHLAND CLOUDY 52 50 93 W3 30.04S  

 
 
 
CLICK HERE TO GO TO PREVIOUS BULLETINS.

The Nexlab WV Page
The Nexlab OH Page
The Nexlab KY Page
The Nexlab VA Page Main Text Page